Location: Unspecified
(50.5330°N, 0.0000°E)
Time: 03:07:22
(UTC+00:00)

EGRS 1 - Visible Passes

Search period start: 04 April 2026 00:00
Search period end: 14 April 2026 00:00
Orbit: 900 x 921 km, 69.9° (Epoch: 29 March)

Date Brightness Start Highest point End Pass type
(mag) Time Alt. Az. Time Alt. Az. Time Alt. Az.
4 Apr ? 01:40:26 10° NNW 01:45:24 26° NE 01:50:19 10° E visible
4 Apr ? 03:25:52 10° NNW 03:31:55 90° WSW 03:37:55 10° SSE visible
4 Apr ? 20:21:52 10° W 20:27:06 29° NW 20:32:20 10° NNE visible
4 Apr ? 22:12:11 10° NW 22:14:58 13° NNW 22:17:46 10° NNE visible
5 Apr ? 00:00:41 10° NNW 00:03:34 13° NNE 00:06:27 10° NE visible
5 Apr ? 01:46:05 10° NNW 01:51:23 31° NE 01:56:38 10° ESE visible
5 Apr ? 03:31:39 10° NW 03:37:37 70° WSW 03:43:33 10° SSE visible
5 Apr ? 20:28:13 10° W 20:33:06 25° NW 20:37:59 10° NNE visible
5 Apr ? 22:18:46 10° NNW 22:21:11 12° N 22:23:36 10° NNE visible
6 Apr ? 00:06:25 10° NNW 00:09:45 15° NNE 00:13:03 10° NE visible
6 Apr ? 01:51:45 10° NNW 01:57:19 37° NE 02:02:50 10° ESE visible
6 Apr ? 03:37:27 10° NW 03:43:16 54° WSW 03:49:03 10° S visible
6 Apr ? 20:34:39 10° W 20:39:08 21° NNW 20:43:38 10° NNE visible
6 Apr ? 22:25:15 10° NNW 22:27:25 12° N 22:29:35 10° NNE visible
7 Apr ? 00:12:07 10° NNW 00:15:54 17° NNE 00:19:40 10° ENE visible
7 Apr ? 01:57:25 10° NNW 02:03:12 46° NE 02:08:57 10° ESE visible
7 Apr ? 03:43:19 10° NW 03:48:53 41° WSW 03:54:23 10° S visible
7 Apr ? 20:41:10 10° WNW 20:45:14 18° NNW 20:49:17 10° NNE visible
7 Apr ? 22:31:33 10° NNW 22:33:39 12° N 22:35:45 10° NNE visible
8 Apr ? 00:17:47 10° NNW 00:22:01 19° NNE 00:26:12 10° ENE visible
8 Apr ? 02:03:06 10° NNW 02:09:03 58° NE 02:14:56 10° SE visible
8 Apr ? 03:49:16 10° NW 03:54:26 31° WSW 03:59:34 10° SSW visible
8 Apr ? 20:47:46 10° WNW 20:51:22 16° NNW 20:54:57 10° NNE visible
8 Apr ? 22:37:39 10° NNW 22:39:53 12° N 22:42:07 10° NNE visible
9 Apr ? 00:23:26 10° NNW 00:28:05 22° NNE 00:32:41 10° E visible
9 Apr ? 02:08:48 10° NNW 02:14:50 75° ENE 02:20:48 10° SE visible
9 Apr ? 03:55:21 10° NW 03:59:57 23° WSW 04:04:30 10° SSW visible
9 Apr ? 20:54:22 10° NW 20:57:31 14° NNW 21:00:39 10° NNE visible
9 Apr ? 22:43:33 10° NNW 22:46:06 13° N 22:48:38 10° NE visible
10 Apr ? 00:29:05 10° NNW 00:34:06 26° NE 00:39:05 10° E visible
10 Apr ? 02:14:32 10° NNW 02:20:35 86° WSW 02:24:35 22° SSE visible
10 Apr ? 04:01:40 10° WNW 04:05:25 17° W 04:07:41 14° SW visible
10 Apr ? 21:01:00 10° NW 21:03:43 13° NNW 21:06:25 10° NNE visible
10 Apr ? 22:49:21 10° NNW 22:52:19 14° NNE 22:55:14 10° NE visible
11 Apr ? 00:34:44 10° NNW 00:40:04 32° NE 00:45:14 11° ESE visible
11 Apr ? 02:20:18 10° NW 02:26:16 67° WSW 02:28:24 40° S visible
11 Apr ? 04:08:26 10° WNW 04:10:49 12° W 04:11:33 12° WSW visible
11 Apr ? 19:17:00 10° W 19:21:48 24° NW 19:26:37 10° NNE visible
11 Apr ? 21:07:35 10° NNW 21:09:56 12° N 21:12:16 10° NNE visible
11 Apr ? 22:55:05 10° NNW 22:58:29 15° NNE 23:01:51 10° NE visible
12 Apr ? 00:40:24 10° NNW 00:46:00 39° NE 00:49:38 20° ESE visible
12 Apr ? 02:26:07 10° NW 02:31:55 51° WSW 02:32:49 47° SW visible
12 Apr ? 19:23:27 10° WNW 19:27:51 20° NNW 19:32:15 10° NNE visible
12 Apr ? 21:14:02 10° NNW 21:16:09 12° N 21:18:16 10° NNE visible
12 Apr ? 23:00:46 10° NNW 23:04:37 17° NNE 23:08:27 10° ENE visible
13 Apr ? 00:46:04 10° NNW 00:51:53 48° NE 00:54:21 31° ESE visible
13 Apr ? 02:32:01 10° NW 02:37:31 39° WSW 02:37:33 39° WSW visible
13 Apr ? 19:29:58 10° WNW 19:33:57 18° NNW 19:37:54 10° NNE visible
13 Apr ? 21:20:17 10° NNW 21:22:24 12° N 21:24:29 10° NNE visible
13 Apr ? 23:06:26 10° NNW 23:10:43 20° NNE 23:14:59 10° ENE visible
